Location: Kellogg
(38.0159°N, 90.0546°W)
Time: 08:26:42
(UTC+00:00)

Vanguard 1 Rocket - Pass Details

Date: 18 September 2024
Orbit: 650 x 4218 km, 34.3° (Epoch: 05 October)

Event Time Altitude Azimuth Distance (km) Brightness Sun altitude
Rises 16:19:26 0° 286° (WNW) 7,968 11.9 47.5°
Reaches altitude 10° 16:25:39 10° 278° (W) 7,218 11.8 48.2°
Maximum altitude 16:45:46 31° 227° (SW) 5,668 12.0 50.2°
Drops below altitude 10° 17:03:34 10° 174° (S) 6,289 12.5 51.7°
Sets 17:08:38 0° 164° (SSE) 6,847 12.5 52.0°
